When you browse on this site, cookies collect data to enhance your experience and personalize the content and advertising you see.
Visit our Privacy Policy to learn more. By continuing to use the site, you agree to this use of cookies and data.

Stündliche Wetter Pandi

Heute, 8 August, Samstag

Zeit Temperatur Niederschläge Wind Luftdruck Luftfeuchtigkeit
00:00 +24°C° 0.1 mm 1 m/S 682 mmHg 74%
01:00 +24°C° 0.1 mm 1 m/S 682 mmHg 74%
02:00 +24°C° 0.1 mm 1 m/S 681 mmHg 75%
03:00 +23°C° 0.1 mm 1 m/S 681 mmHg 75%
04:00 +23°C° 0.1 mm 1 m/S 681 mmHg 76%
05:00 +23°C° 0.1 mm 1 m/S 681 mmHg 76%
06:00 +22°C° 0.1 mm 0 m/S 681 mmHg 76%
07:00 +22°C° 0.1 mm 0 m/S 682 mmHg 77%
08:00 +25°C° 0.1 mm 1 m/S 682 mmHg 73%
09:00 +27°C° 0.1 mm 1 m/S 683 mmHg 70%
10:00 +28°C° 0.1 mm 2 m/S 683 mmHg 67%
11:00 +28°C° 0.4 mm 2 m/S 683 mmHg 67%
12:00 +29°C° 0.4 mm 2 m/S 682 mmHg 66%
13:00 +29°C° 0.4 mm 2 m/S 681 mmHg 66%
14:00 +29°C° 0.5 mm 2 m/S 681 mmHg 67%
15:00 +29°C° 0.5 mm 1 m/S 680 mmHg 67%
16:00 +29°C° 0.5 mm 1 m/S 680 mmHg 68%
17:00 +27°C° 0.2 mm 1 m/S 680 mmHg 71%
18:00 +26°C° 0.2 mm 1 m/S 680 mmHg 73%
19:00 +25°C° 0.2 mm 2 m/S 680 mmHg 76%
20:00 +25°C° 0 mm 2 m/S 681 mmHg 76%
21:00 +24°C° 0 mm 2 m/S 681 mmHg 77%
22:00 +24°C° 0 mm 1 m/S 682 mmHg 77%
23:00 +23°C° 0 mm 1 m/S 682 mmHg 77%

Morgen, 9 August, Sonntag

Zeit Temperatur Niederschläge Wind Luftdruck Luftfeuchtigkeit
00:00 +23°C° 0 mm 1 m/S 681 mmHg 77%
01:00 +23°C° 0 mm 1 m/S 681 mmHg 77%
02:00 +22°C° 0 mm 1 m/S 681 mmHg 77%
03:00 +22°C° 0 mm 1 m/S 680 mmHg 78%
04:00 +22°C° 0 mm 1 m/S 680 mmHg 78%
05:00 +23°C° 0 mm 1 m/S 680 mmHg 77%
06:00 +23°C° 0 mm 1 m/S 681 mmHg 76%
07:00 +22°C° 0 mm 0 m/S 681 mmHg 75%
08:00 +25°C° 0 mm 1 m/S 682 mmHg 72%
09:00 +27°C° 0 mm 1 m/S 682 mmHg 68%
10:00 +28°C° 0 mm 1 m/S 683 mmHg 65%
11:00 +29°C° 0.3 mm 1 m/S 682 mmHg 64%
12:00 +29°C° 0.3 mm 1 m/S 682 mmHg 63%
13:00 +30°C° 0.3 mm 1 m/S 681 mmHg 61%
14:00 +30°C° 0.6 mm 1 m/S 681 mmHg 61%
15:00 +30°C° 0.6 mm 1 m/S 680 mmHg 61%
16:00 +30°C° 0.6 mm 1 m/S 679 mmHg 61%
17:00 +29°C° 0.2 mm 1 m/S 679 mmHg 65%
18:00 +27°C° 0.2 mm 1 m/S 680 mmHg 69%
19:00 +26°C° 0.2 mm 1 m/S 680 mmHg 73%
20:00 +25°C° 0 mm 2 m/S 680 mmHg 73%
21:00 +25°C° 0 mm 2 m/S 681 mmHg 73%
22:00 +24°C° 0 mm 2 m/S 681 mmHg 73%
23:00 +24°C° 0 mm 2 m/S 681 mmHg 73%

übermorgen, 10 August, Montag

Zeit Temperatur Niederschläge Wind Luftdruck Luftfeuchtigkeit
00:00 +23°C° 0 mm 2 m/S 680 mmHg 74%
01:00 +23°C° 0 mm 2 m/S 680 mmHg 74%
02:00 +23°C° 0 mm 1 m/S 680 mmHg 74%
03:00 +22°C° 0 mm 1 m/S 679 mmHg 74%
04:00 +22°C° 0 mm 1 m/S 679 mmHg 74%
05:00 +23°C° 0 mm 1 m/S 679 mmHg 73%
06:00 +23°C° 0 mm 1 m/S 680 mmHg 73%
07:00 +24°C° 0 mm 1 m/S 680 mmHg 73%
08:00 +25°C° 0 mm 1 m/S 681 mmHg 69%
09:00 +27°C° 0 mm 1 m/S 681 mmHg 64%
10:00 +29°C° 0 mm 1 m/S 682 mmHg 60%
11:00 +29°C° 0.2 mm 1 m/S 681 mmHg 59%
12:00 +30°C° 0.2 mm 1 m/S 680 mmHg 58%
13:00 +31°C° 0.2 mm 1 m/S 680 mmHg 57%
14:00 +31°C° 0.3 mm 1 m/S 679 mmHg 58%
15:00 +31°C° 0.3 mm 1 m/S 678 mmHg 58%
16:00 +31°C° 0.3 mm 1 m/S 678 mmHg 58%
17:00 +29°C° 0.1 mm 1 m/S 678 mmHg 62%
18:00 +27°C° 0.1 mm 1 m/S 678 mmHg 66%
19:00 +26°C° 0.1 mm 2 m/S 678 mmHg 71%
20:00 +25°C° 0 mm 2 m/S 679 mmHg 70%
21:00 +25°C° 0 mm 2 m/S 679 mmHg 69%
22:00 +24°C° 0 mm 2 m/S 680 mmHg 68%
23:00 +24°C° 0 mm 2 m/S 679 mmHg 68%

11 August, Dienstag

Zeit Temperatur Niederschläge Wind Luftdruck Luftfeuchtigkeit
00:00 +24°C° 0 mm 2 m/S 679 mmHg 68%
01:00 +23°C° 0 mm 1 m/S 679 mmHg 69%
02:00 +23°C° 0 mm 1 m/S 679 mmHg 69%
03:00 +23°C° 0 mm 1 m/S 678 mmHg 70%
04:00 +22°C° 0 mm 1 m/S 678 mmHg 71%
05:00 +23°C° 0 mm 1 m/S 678 mmHg 71%
06:00 +24°C° 0 mm 1 m/S 679 mmHg 72%
07:00 +24°C° 0 mm 1 m/S 679 mmHg 72%
08:00 +26°C° 0 mm 1 m/S 680 mmHg 68%
09:00 +27°C° 0 mm 1 m/S 680 mmHg 64%
10:00 +29°C° 0 mm 2 m/S 680 mmHg 60%
11:00 +30°C° 0.1 mm 2 m/S 680 mmHg 58%
12:00 +31°C° 0.1 mm 2 m/S 679 mmHg 56%
13:00 +32°C° 0.1 mm 2 m/S 679 mmHg 53%
14:00 +32°C° 0.2 mm 1 m/S 678 mmHg 53%
15:00 +31°C° 0.2 mm 1 m/S 677 mmHg 53%
16:00 +31°C° 0.2 mm 1 m/S 677 mmHg 53%
17:00 +30°C° 0.1 mm 1 m/S 677 mmHg 58%
18:00 +28°C° 0.1 mm 2 m/S 677 mmHg 64%
19:00 +26°C° 0.1 mm 2 m/S 678 mmHg 69%
20:00 +26°C° 0 mm 2 m/S 678 mmHg 68%
21:00 +25°C° 0 mm 2 m/S 679 mmHg 67%
22:00 +25°C° 0 mm 2 m/S 679 mmHg 66%
23:00 +25°C° 0 mm 2 m/S 679 mmHg 67%

12 August, Mittwoch

Zeit Temperatur Niederschläge Wind Luftdruck Luftfeuchtigkeit
00:00 +24°C° 0 mm 1 m/S 679 mmHg 68%
01:00 +24°C° 0 mm 1 m/S 678 mmHg 69%
02:00 +24°C° 0.1 mm 1 m/S 678 mmHg 70%
03:00 +23°C° 0.1 mm 1 m/S 678 mmHg 72%
04:00 +23°C° 0.1 mm 1 m/S 678 mmHg 73%
05:00 +24°C° 0.1 mm 1 m/S 678 mmHg 74%
06:00 +24°C° 0.1 mm 1 m/S 679 mmHg 75%
07:00 +24°C° 0.1 mm 1 m/S 679 mmHg 76%
08:00 +25°C° 0.1 mm 1 m/S 679 mmHg 73%
09:00 +27°C° 0.1 mm 1 m/S 680 mmHg 71%
10:00 +28°C° 0.1 mm 1 m/S 680 mmHg 68%
11:00 +29°C° 0.5 mm 1 m/S 679 mmHg 65%
12:00 +30°C° 0.5 mm 1 m/S 679 mmHg 62%
13:00 +31°C° 0.5 mm 2 m/S 678 mmHg 60%
14:00 +31°C° 0.4 mm 1 m/S 677 mmHg 60%
15:00 +31°C° 0.4 mm 1 m/S 677 mmHg 61%
16:00 +29°C° 0.4 mm 0 m/S 676 mmHg 61%
17:00 +29°C° 0.7 mm 1 m/S 677 mmHg 65%
18:00 +28°C° 0.7 mm 2 m/S 677 mmHg 70%
19:00 +26°C° 0.7 mm 2 m/S 677 mmHg 74%
20:00 +26°C° 0.4 mm 2 m/S 678 mmHg 74%
21:00 +25°C° 0.4 mm 2 m/S 678 mmHg 75%
22:00 +25°C° 0.4 mm 1 m/S 679 mmHg 75%
23:00 +25°C° 1 mm 1 m/S 678 mmHg 79%

13 August, Donnerstag

Zeit Temperatur Niederschläge Wind Luftdruck Luftfeuchtigkeit
00:00 +24°C° 1 mm 1 m/S 678 mmHg 83%
01:00 +24°C° 1 mm 1 m/S 678 mmHg 87%
02:00 +24°C° 0.5 mm 1 m/S 678 mmHg 88%
03:00 +23°C° 0.5 mm 1 m/S 677 mmHg 89%
04:00 +21°C° 0.5 mm 0 m/S 677 mmHg 90%
05:00 +21°C° 0.3 mm 0 m/S 678 mmHg 89%
06:00 +22°C° 0.3 mm 0 m/S 678 mmHg 89%
07:00 +22°C° 0.3 mm 0 m/S 679 mmHg 89%
08:00 +22°C° 0.3 mm 0 m/S 679 mmHg 87%
09:00 +25°C° 0.3 mm 1 m/S 679 mmHg 86%
10:00 +26°C° 0.3 mm 1 m/S 679 mmHg 84%
11:00 +27°C° 0.3 mm 1 m/S 679 mmHg 79%
12:00 +28°C° 0.3 mm 1 m/S 678 mmHg 74%
13:00 +29°C° 0.3 mm 1 m/S 678 mmHg 69%
14:00 +29°C° 0.9 mm 1 m/S 677 mmHg 70%
15:00 +29°C° 0.9 mm 1 m/S 677 mmHg 70%
16:00 +29°C° 0.9 mm 1 m/S 676 mmHg 71%
17:00 +28°C° 0.9 mm 1 m/S 677 mmHg 74%
18:00 +27°C° 0.9 mm 1 m/S 677 mmHg 76%
19:00 +26°C° 0.9 mm 1 m/S 678 mmHg 79%
20:00 +26°C° 0.6 mm 1 m/S 678 mmHg 80%
21:00 +25°C° 0.6 mm 1 m/S 678 mmHg 80%
22:00 +25°C° 0.6 mm 1 m/S 678 mmHg 81%
23:00 +24°C° 1 mm 1 m/S 678 mmHg 84%
Mehr zeigen